This is the latest recevied weather packets stored in our database for station/object WP3OF. If no packets are shown the sender has not sent any weather packets the latest 1 day(s).
| Time | Temp. | Humidity | Pressure | Rain* | Wind** | Luminosity | Snow |
|---|---|---|---|---|---|---|---|
| 1778027995 | - | - | - | 0 mm | 2.24 m/s, 189° | - | - |
| 1778027692 | - | - | - | 0 mm | 2.68 m/s, 206° | - | - |
| 1778027388 | - | - | - | 0 mm | 1.34 m/s, 161° | - | - |
| 1778027085 | - | - | - | 0 mm | 1.79 m/s, 190° | - | - |
| 1778026780 | - | - | - | 0 mm | 2.24 m/s, 210° | - | - |
| 1778026477 | - | - | - | 0 mm | 3.13 m/s, 190° | - | - |
| 1778026175 | - | - | - | 0 mm | 2.24 m/s, 200° | - | - |
| 1778025872 | - | - | - | 0 mm | 3.13 m/s, 213° | - | - |
| 1778025569 | - | - | - | 0 mm | 2.24 m/s, 205° | - | - |
| 1778025267 | - | - | - | 0 mm | 2.24 m/s, 228° | - | - |
| 1778024963 | - | - | - | 0 mm | 1.79 m/s, 239° | - | - |
| 1778024661 | - | - | - | 0 mm | 1.79 m/s, 215° | - | - |
| 1778024357 | - | - | - | 0 mm | 1.79 m/s, 220° | - | - |
| 1778024056 | - | - | - | 0 mm | 2.24 m/s, 233° | - | - |
| 1778023753 | - | - | - | 0 mm | 1.34 m/s, 255° | - | - |
| 1778023451 | - | - | - | 0 mm | 2.24 m/s, 232° | - | - |
| 1778023147 | - | - | - | 0 mm | 0.89 m/s, 268° | - | - |
| 1778022844 | - | - | - | 0 mm | 1.79 m/s, 262° | - | - |
| 1778022542 | - | - | - | 0 mm | 2.68 m/s, 258° | - | - |
| 1778022240 | - | - | - | 0 mm | 3.13 m/s, 270° | - | - |
| 1778021936 | - | - | - | 0 mm | 1.79 m/s, 260° | - | - |
| 1778021634 | - | - | - | 0 mm | 2.68 m/s, 268° | - | - |
| 1778021328 | - | - | - | 0 mm | 1.79 m/s, 270° | - | - |
| 1778021026 | - | - | - | 0 mm | 2.68 m/s, 274° | - | - |
| 1778020723 | - | - | - | 0 mm | 1.79 m/s, 287° | - | - |
* Rain latest hour (hover to see other rain measurements)
** Current wind speed in m/s (hover to see current wind gust speed)